AMC-15

Last updated on Thu Sep 10 2026 00:02:55 GMT+0000 (Coordinated Universal Time)

1 28446U 04041A 26252.53348367 -.00000110 00000+0 00000+0 0 9990 2 28446 0.0500 301.2083 0002031 234.9277 259.4370 1.00271535 80145
UTC large
Height (km)
Speed (km/s)
/
Latitude / Longitude
Inclination (degrees)
Orbital Period (minutes)
Azimuth
Elevation
Range (km)
Doppler Factor

Next 0 passes for location: London (51.5072 / 0.1276)

No passes found over London.
AMC-15